Location: Zilina
(0.0000°N, 18.7333°E)
Time: 05:35:01
(UTC+02:00)

Daily predictions for brighter satellites

Satellite Brightness Start Highest point End
(mag) Time Altitude Azimuth Time Altitude Azimuth Time Altitude Azimuth
Cosmos 1943 Rocket 4.0 04:13:44 10° NNE 04:18:27 27° ENE 04:23:08 10° SE
ARIANE 5 R/B 3.6 04:39:30 67° W 04:40:46 88° N 05:45:30 10° E
Ariane H10+ 3.7 04:45:17 26° E 04:45:17 26° E 04:46:22 10° E
BLOCK DM-SL R/B 3.3 04:44:45 74° SSE 04:44:45 74° SSE 04:50:47 10° E
Meteor 1-13 Rocket 4.2 04:47:01 63° SSE 04:47:51 76° E 04:53:28 10° N
CBERS-1 4.4 04:50:20 10° N 04:54:05 49° N 04:54:05 49° N
Tiangong 0.0 05:02:16 26° E 05:02:16 26° E 05:04:04 10° ESE
Cosmos 1655 Rocket 3.9 05:01:11 59° W 05:01:21 59° W 05:07:26 10° N
ARIANE 44L R/B 4.2 04:55:12 36° W 05:01:37 76° NNW 05:06:02 10° ENE
OAO 2 Rocket 3.4 05:06:07 57° S 05:06:50 66° SE 05:11:44 10° ENE
S3M 4.2 05:01:51 10° N 05:08:03 72° E 05:14:23 10° S
Cosmos 1371 Rocket 4.0 05:02:46 10° N 05:08:04 81° ENE 05:13:24 10° SSE
Cosmos 1603 4.0 05:10:40 44° WNW 05:10:40 44° WNW 05:15:26 10° N
Atlas Centaur 2 1.5 05:12:36 63° SW 05:12:42 64° SSW 05:17:55 10° SE
SWIFT 3.1 05:13:39 37° NNW 05:13:39 37° NNW 05:17:10 10° NE
H-2A R/B 3.4 05:10:19 10° NNE 05:12:30 39° NNE 05:12:30 39° NNE
Cosmos 2278 Rocket 4.3 05:20:24 11° SSW 05:20:24 11° SSW 05:20:43 10° SSW
ARGOS 3.6 05:13:20 10° NNE 05:18:34 60° ESE 05:23:50 10° S
Cosmos 2228 Rocket 3.3 05:15:37 10° S 05:20:04 69° E 05:24:28 10° N
H-2A R/B 2.6 05:21:35 10° NNW 05:26:21 37° WNW 05:27:17 35° WSW
FengYun 1-2 T 4.3 05:24:00 10° NNE 05:29:29 80° ESE 05:34:58 10° S
USA 267 3.3 05:23:58 10° SSE 05:30:23 59° SW 05:36:48 10° NW
DMSP B5D2-2 4.0 05:25:54 10° S 05:31:00 58° WSW 05:36:06 10° NNW
Lacrosse 5 rocket 2.1 05:28:23 15° SSW 05:31:48 53° ESE 05:35:57 10° NE
Ariane 42P Rocket 2.6 05:31:16 33° NNW 05:31:59 40° N 05:37:17 10° E
Cosmos 1244 Rocket 4.4 05:26:19 10° S 05:32:38 80° W 05:38:50 10° N
In-Cosmos 22 4.4 05:31:06 24° SW 05:33:44 40° W 05:38:44 10° NNW
Cosmos 2315 Rocket 4.0 05:34:26 10° N 05:40:37 90° E 05:46:54 10° S
SL-19 R/B 4.1 05:37:36 10° NNE 05:42:48 86° ESE 05:48:02 10° SSW
IRS-1C 4.4 05:45:12 10° N 05:50:16 47° WNW 05:55:22 10° SSW
Cosmos 1908 3.4 05:48:27 10° N 05:52:01 66° E 05:55:35 10° S
Cosmos 1869 Rocket 3.4 05:56:08 10° N 06:00:24 76° W 06:04:43 10° S
Okean 1-7 3.7 05:57:02 10° S 06:01:11 58° E 06:05:17 10° NNE
Cosmos 1943 Rocket 3.3 05:57:48 10° WNW 06:01:52 20° WSW 06:05:57 10° SSW
ARIANE 5 R/B 3.2 05:59:00 10° NNW 06:03:38 34° WNW 06:08:16 10° SW
HETE-2 4.4 06:02:59 14° W 06:06:22 88° N 06:10:22 10° E
Ariane H10-3 1.6 06:03:44 13° WSW 06:07:15 50° S 06:09:17 10° ESE
Cosmos 1862 Rocket 4.2 06:06:31 10° SSW 06:10:35 35° W 06:14:36 10° NNW
COSMO-SKYMED 1 3.9 06:06:34 10° SSE 06:10:43 45° ENE 06:14:51 10° N
ARIANE 5 R/B 2.7 06:09:44 11° W 06:12:31 73° S 06:26:02 10° E
BlueWalker 3 3.7 06:09:35 10° NNW 06:13:05 35° NE 06:16:35 10° ESE
Cosmos 1110 Rocket 4.1 06:09:13 10° NNW 06:14:30 88° ENE 06:19:50 10° SSE
USA 290 3.3 06:12:25 10° NW 06:14:53 22° WSW 06:17:23 10° SSW
Cosmos 1452 Rocket 3.5 06:10:03 10° NNW 06:15:17 85° WSW 06:20:31 10° S
DELTA 4 R/B 0.3 06:13:59 10° W 06:15:50 35° SSW 06:17:19 10° SE
Ariane H10-3 3.4 06:03:06 10° W 06:16:01 79° S 06:20:27 10° E
YAOGAN 11 4.3 06:12:15 10° S 06:16:29 48° WSW 06:20:45 10° NNW
SJ-11-01 4.4 06:11:57 10° N 06:16:35 59° WNW 06:21:13 10° SSW
Cosmos 1356 Rocket 3.3 06:14:02 10° S 06:18:05 75° W 06:22:02 10° N
Spot 4 Rocket 4.0 06:14:17 10° N 06:19:23 79° WNW 06:24:31 10° SSW
Star 37E S/N 40099 4.4 06:17:27 10° SW 06:20:30 44° SSE 06:23:35 10° ENE
ARIANE 5 R/B 3.3 05:59:35 10° W 06:20:32 74° S 06:24:11 10° E
SL-24 DEB 4.2 06:19:36 10° N 06:24:11 64° W 06:28:45 10° SSW
Centaur D-1AR AC-40 3.2 06:11:21 10° WNW 06:26:02 47° SSW 06:30:11 10° SE
